RYR3342 LKPR-LIPQ

Flight info

Callsign RYR3342
Flight time N/A
Altitude 24000
Route VOZ4H/12 VOZ DCT PISAM DCT TAGAS DCT GRZ DCT RIFEN
Aircraft B738/M-SDE2E3FGHIRWXY/LB1

Departure

Time 2026-05-06 19:21
Airport Václav Havel Airport Prague (LKPR)

Arrival

Time N/A
Airport Trieste Airport (LIPQ)
Time Latitude Longitude Altitude Speed Heading
2026-05-06 18:31 50.10682 14.25999 1256 ft 0 kts 124°
2026-05-06 19:14 50.10677 14.26010 1255 ft 4 kts 125°
2026-05-06 19:14 50.10644 14.26061 1255 ft 8 kts 168°
2026-05-06 19:14 50.10598 14.26039 1255 ft 7 kts 214°
2026-05-06 19:14 50.10542 14.25968 1255 ft 11 kts 239°
2026-05-06 19:15 50.10561 14.25837 1255 ft 14 kts 298°
2026-05-06 19:15 50.10612 14.25709 1255 ft 12 kts 302°
2026-05-06 19:15 50.10643 14.25597 1255 ft 9 kts 264°
2026-05-06 19:15 50.10615 14.25519 1255 ft 7 kts 241°
2026-05-06 19:16 50.10598 14.25445 1255 ft 6 kts 255°
2026-05-06 19:16 50.10585 14.25360 1255 ft 9 kts 258°
2026-05-06 19:16 50.10577 14.25294 1255 ft 0 kts 258°
2026-05-06 19:16 50.10577 14.25293 1255 ft 0 kts 258°
2026-05-06 19:17 50.10577 14.25289 1255 ft 0 kts 258°
2026-05-06 19:17 50.10576 14.25285 1255 ft 0 kts 258°
2026-05-06 19:17 50.10576 14.25284 1255 ft 0 kts 258°
2026-05-06 19:17 50.10575 14.25280 1255 ft 0 kts 258°
2026-05-06 19:19 50.10575 14.25279 1255 ft 0 kts 258°
2026-05-06 19:19 50.10575 14.25278 1255 ft 0 kts 258°
2026-05-06 19:20 50.10567 14.25220 1255 ft 10 kts 256°
2026-05-06 19:20 50.10522 14.25124 1255 ft 7 kts 161°
2026-05-06 19:20 50.10504 14.25152 1255 ft 0 kts 127°
2026-05-06 19:20 50.10486 14.25189 1255 ft 20 kts 128°
2026-05-06 19:21 50.10249 14.25680 1255 ft 90 kts 126°
2026-05-06 19:21 50.09752 14.26709 1256 ft 145 kts 127°
2026-05-06 19:21 50.09096 14.28066 1600 ft 159 kts 126°
2026-05-06 19:21 50.08425 14.29458 2094 ft 164 kts 127°
2026-05-06 19:22 50.07728 14.30882 2687 ft 166 kts 126°
2026-05-06 19:22 50.07029 14.32307 3241 ft 169 kts 125°
2026-05-06 19:22 50.06347 14.33729 3864 ft 166 kts 125°
2026-05-06 19:22 50.05761 14.34956 4332 ft 167 kts 126°
2026-05-06 19:23 50.05058 14.36413 4838 ft 172 kts 126°
2026-05-06 19:23 50.04316 14.37941 5002 ft 180 kts 126°
2026-05-06 19:23 50.03587 14.39440 4970 ft 170 kts 126°
2026-05-06 19:23 50.02876 14.40903 5021 ft 180 kts 126°
2026-05-06 19:24 50.02053 14.42604 5014 ft 210 kts 126°
2026-05-06 19:24 50.01160 14.44440 4964 ft 219 kts 126°
2026-05-06 19:24 50.00240 14.46333 4974 ft 217 kts 126°
2026-05-06 19:24 49.99337 14.48190 5000 ft 218 kts 126°
2026-05-06 19:25 49.98303 14.49952 4896 ft 230 kts 143°
2026-05-06 19:25 49.96832 14.51294 4800 ft 260 kts 152°
2026-05-06 19:25 49.95174 14.52632 4911 ft 277 kts 152°
2026-05-06 19:25 49.93483 14.54029 5868 ft 274 kts 151°
2026-05-06 19:26 49.91795 14.55428 6649 ft 279 kts 151°
2026-05-06 19:26 49.90092 14.56837 7447 ft 283 kts 151°
2026-05-06 19:26 49.88386 14.58312 8242 ft 286 kts 150°
2026-05-06 19:26 49.86646 14.59809 9034 ft 290 kts 151°
2026-05-06 19:27 49.84888 14.61310 9849 ft 293 kts 152°
2026-05-06 19:27 49.83080 14.62905 10349 ft 309 kts 152°
2026-05-06 19:27 49.81137 14.64598 10667 ft 329 kts 153°
2026-05-06 19:27 49.79163 14.66248 11382 ft 334 kts 155°
2026-05-06 19:28 49.77115 14.67936 12102 ft 340 kts 155°
2026-05-06 19:28 49.75027 14.69641 12913 ft 343 kts 155°
2026-05-06 19:28 49.72888 14.71363 13693 ft 347 kts 156°
2026-05-06 19:28 49.70773 14.73062 14463 ft 351 kts 156°
2026-05-06 19:29 49.68609 14.74812 15231 ft 356 kts 156°
2026-05-06 19:29 49.66425 14.76599 15987 ft 360 kts 156°
2026-05-06 19:29 49.64204 14.78429 16740 ft 364 kts 156°
2026-05-06 19:29 49.61941 14.80297 17477 ft 367 kts 156°
2026-05-06 19:30 49.59683 14.82162 18176 ft 371 kts 156°
2026-05-06 19:30 49.57417 14.84030 18879 ft 374 kts 156°
2026-05-06 19:30 49.55106 14.85938 19567 ft 378 kts 156°
2026-05-06 19:30 49.52806 14.87829 20242 ft 380 kts 156°
2026-05-06 19:31 49.50463 14.89735 20890 ft 383 kts 156°
2026-05-06 19:31 49.48097 14.91653 21584 ft 384 kts 156°
2026-05-06 19:31 49.43415 14.95452 23147 ft 380 kts 157°
2026-05-06 19:32 49.41090 14.97334 23717 ft 377 kts 157°
2026-05-06 19:32 49.38762 14.99213 23765 ft 377 kts 157°
2026-05-06 19:32 49.36463 15.01067 23765 ft 373 kts 157°
2026-05-06 19:32 49.34184 15.02904 23763 ft 372 kts 157°
2026-05-06 19:33 49.31893 15.04747 23759 ft 372 kts 157°
2026-05-06 19:33 49.29594 15.06597 23758 ft 372 kts 157°
2026-05-06 19:33 49.28079 15.07815 23756 ft 372 kts 157°
2026-05-06 19:33 49.25023 15.10268 23753 ft 373 kts 157°
2026-05-06 19:34 49.22739 15.12099 23751 ft 373 kts 157°
2026-05-06 19:34 49.20430 15.13949 23750 ft 373 kts 157°
2026-05-06 19:34 49.18132 15.15788 23750 ft 373 kts 157°
2026-05-06 19:34 49.15852 15.17611 23750 ft 374 kts 157°
2026-05-06 19:35 49.13530 15.19467 23750 ft 374 kts 157°
2026-05-06 19:35 49.11248 15.21288 23750 ft 374 kts 157°
2026-05-06 19:35 49.08929 15.23137 23750 ft 374 kts 157°
2026-05-06 19:35 49.06617 15.24978 23750 ft 374 kts 157°
2026-05-06 19:36 49.04328 15.26799 23750 ft 374 kts 157°
2026-05-06 19:36 49.02002 15.28649 23750 ft 374 kts 157°
2026-05-06 19:36 48.99715 15.30465 23750 ft 374 kts 157°
2026-05-06 19:36 48.97397 15.32303 23750 ft 374 kts 157°
2026-05-06 19:37 48.95106 15.34118 23750 ft 374 kts 157°
2026-05-06 19:37 48.92814 15.35919 23750 ft 374 kts 158°
2026-05-06 19:37 48.90440 15.37574 23749 ft 372 kts 162°
2026-05-06 19:37 48.88961 15.38426 23749 ft 370 kts 166°
2026-05-06 19:38 48.85631 15.39757 23751 ft 368 kts 171°
2026-05-06 19:38 48.83158 15.40591 23749 ft 368 kts 171°
2026-05-06 19:38 48.81500 15.41139 23749 ft 368 kts 172°
2026-05-06 19:38 48.78178 15.42224 23749 ft 367 kts 172°
2026-05-06 19:39 48.75680 15.43031 23750 ft 367 kts 172°
2026-05-06 19:39 48.73222 15.43821 23750 ft 367 kts 172°
2026-05-06 19:39 48.70725 15.44620 23750 ft 367 kts 172°
2026-05-06 19:39 48.68255 15.45408 23749 ft 368 kts 172°
2026-05-06 19:40 48.65752 15.46202 23750 ft 368 kts 172°
2026-05-06 19:40 48.63227 15.47003 23750 ft 369 kts 172°
2026-05-06 19:40 48.60756 15.47786 23749 ft 369 kts 172°
2026-05-06 19:40 48.58226 15.48587 23749 ft 368 kts 172°
2026-05-06 19:41 48.55713 15.49381 23750 ft 368 kts 172°
2026-05-06 19:41 48.53233 15.50163 23750 ft 368 kts 172°
2026-05-06 19:41 48.50714 15.50957 23750 ft 368 kts 172°
2026-05-06 19:41 48.48205 15.51746 23750 ft 369 kts 172°
2026-05-06 19:42 48.45691 15.52535 23751 ft 370 kts 172°
2026-05-06 19:42 48.43199 15.53318 23754 ft 370 kts 172°
2026-05-06 19:42 48.40675 15.54111 23757 ft 369 kts 172°
2026-05-06 19:42 48.38157 15.54900 23761 ft 369 kts 172°
2026-05-06 19:43 48.35667 15.55680 23765 ft 369 kts 172°
2026-05-06 19:43 48.33139 15.56471 23769 ft 369 kts 172°
2026-05-06 19:43 48.30640 15.57252 23773 ft 369 kts 172°
2026-05-06 19:43 48.28110 15.58040 23776 ft 370 kts 172°
2026-05-06 19:44 48.25600 15.58822 23777 ft 371 kts 172°
2026-05-06 19:44 48.23097 15.59602 23777 ft 371 kts 172°
2026-05-06 19:44 48.20593 15.60382 23777 ft 370 kts 172°
2026-05-06 19:44 48.18083 15.61163 23777 ft 370 kts 172°
2026-05-06 19:45 48.15560 15.61946 23777 ft 370 kts 172°
2026-05-06 19:45 48.13031 15.62731 23777 ft 370 kts 172°
2026-05-06 19:45 48.10521 15.63509 23777 ft 370 kts 172°
2026-05-06 19:45 48.08007 15.64262 23776 ft 369 kts 173°
2026-05-06 19:46 48.05493 15.64773 23776 ft 367 kts 178°
2026-05-06 19:46 48.02934 15.64895 23775 ft 365 kts 185°
2026-05-06 19:46 48.00427 15.64576 23778 ft 363 kts 189°
2026-05-06 19:46 47.97918 15.64130 23781 ft 363 kts 189°
2026-05-06 19:47 47.95427 15.63667 23795 ft 363 kts 189°
2026-05-06 19:47 47.92928 15.63196 23810 ft 363 kts 189°
2026-05-06 19:47 47.90411 15.62720 23826 ft 363 kts 189°
2026-05-06 19:47 47.87980 15.62259 23842 ft 363 kts 189°
2026-05-06 19:48 47.85502 15.61789 23858 ft 363 kts 189°
2026-05-06 19:48 47.82991 15.61312 23875 ft 363 kts 189°
2026-05-06 19:48 47.80493 15.60838 23881 ft 363 kts 189°
2026-05-06 19:48 47.77990 15.60363 23883 ft 363 kts 189°
2026-05-06 19:49 47.75546 15.59899 23884 ft 363 kts 189°
2026-05-06 19:49 47.73038 15.59424 23885 ft 363 kts 189°
2026-05-06 19:49 47.70538 15.58951 23885 ft 363 kts 189°
2026-05-06 19:49 47.68083 15.58486 23885 ft 363 kts 189°
2026-05-06 19:50 47.65555 15.58008 23885 ft 363 kts 189°
2026-05-06 19:50 47.63089 15.57542 23885 ft 363 kts 189°
2026-05-06 19:50 47.60562 15.57065 23885 ft 363 kts 189°
2026-05-06 19:50 47.58083 15.56598 23885 ft 363 kts 189°
2026-05-06 19:51 47.55582 15.56127 23885 ft 363 kts 189°
2026-05-06 19:51 47.53071 15.55654 23885 ft 363 kts 189°
2026-05-06 19:51 47.50567 15.55184 23885 ft 363 kts 189°
2026-05-06 19:51 47.48061 15.54713 23885 ft 363 kts 189°
2026-05-06 19:52 47.45602 15.54253 23885 ft 362 kts 189°
2026-05-06 19:52 47.43116 15.53787 23885 ft 362 kts 189°
2026-05-06 19:52 47.40658 15.53326 23885 ft 362 kts 189°
2026-05-06 19:52 47.38176 15.52862 23885 ft 362 kts 189°
2026-05-06 19:53 47.35700 15.52398 23885 ft 362 kts 189°
2026-05-06 19:53 47.33195 15.51930 23885 ft 362 kts 189°
2026-05-06 19:53 47.30733 15.51471 23885 ft 362 kts 189°
2026-05-06 19:53 47.28243 15.51007 23885 ft 362 kts 189°
2026-05-06 19:54 47.25759 15.50544 23885 ft 362 kts 189°
2026-05-06 19:54 47.23288 15.50084 23885 ft 362 kts 189°
2026-05-06 19:54 47.20787 15.49620 23885 ft 362 kts 189°
2026-05-06 19:54 47.18297 15.49157 23885 ft 362 kts 189°
2026-05-06 19:55 47.15802 15.48694 23885 ft 362 kts 189°
2026-05-06 19:55 47.13313 15.48234 23885 ft 362 kts 189°
2026-05-06 19:55 47.10812 15.47771 23885 ft 362 kts 190°
2026-05-06 19:55 47.08346 15.47315 23885 ft 362 kts 190°
2026-05-06 19:56 47.05854 15.46854 23885 ft 362 kts 190°
2026-05-06 19:56 47.03359 15.46393 23885 ft 362 kts 190°
2026-05-06 19:56 47.00876 15.45918 23884 ft 362 kts 192°
2026-05-06 19:56 46.98428 15.45101 23884 ft 359 kts 199°
2026-05-06 19:57 46.96128 15.43716 23884 ft 357 kts 210°
2026-05-06 19:57 46.94072 15.41713 23886 ft 356 kts 219°
2026-05-06 19:57 46.92271 15.39259 23885 ft 356 kts 226°
2026-05-06 19:57 46.90619 15.36520 23886 ft 356 kts 229°
2026-05-06 19:58 46.89173 15.33993 23884 ft 356 kts 229°
2026-05-06 19:58 46.87509 15.31073 23885 ft 356 kts 229°
2026-05-06 19:58 46.85916 15.28291 23885 ft 356 kts 229°
2026-05-06 19:58 46.84325 15.25519 23885 ft 355 kts 229°
2026-05-06 19:59 46.82750 15.22782 23885 ft 355 kts 229°
2026-05-06 19:59 46.81172 15.20050 23885 ft 355 kts 229°
2026-05-06 19:59 46.79567 15.17275 23885 ft 355 kts 229°
2026-05-06 19:59 46.78014 15.14595 23885 ft 355 kts 229°
2026-05-06 20:00 46.76422 15.11850 23885 ft 355 kts 229°
2026-05-06 20:00 46.74847 15.09138 23883 ft 355 kts 229°
2026-05-06 20:00 46.73234 15.06363 23880 ft 355 kts 229°
2026-05-06 20:00 46.71643 15.03630 23877 ft 355 kts 229°
2026-05-06 20:01 46.70054 15.00899 23876 ft 355 kts 229°
2026-05-06 20:01 46.68463 14.98170 23878 ft 355 kts 229°
2026-05-06 20:01 46.66864 14.95432 23881 ft 355 kts 229°
2026-05-06 20:01 46.65250 14.92671 23887 ft 355 kts 229°
2026-05-06 20:02 46.63669 14.89967 23894 ft 355 kts 229°
2026-05-06 20:02 46.62081 14.87256 23903 ft 355 kts 229°
2026-05-06 20:02 46.60485 14.84533 23912 ft 354 kts 229°
2026-05-06 20:02 46.58891 14.81815 23918 ft 353 kts 229°
2026-05-06 20:03 46.57295 14.79098 23923 ft 353 kts 229°
2026-05-06 20:03 46.55699 14.76383 23926 ft 353 kts 229°
2026-05-06 20:03 46.54102 14.73670 23925 ft 354 kts 229°
2026-05-06 20:03 46.52520 14.70985 23924 ft 354 kts 229°
2026-05-06 20:04 46.50914 14.68261 23924 ft 354 kts 229°
2026-05-06 20:04 46.49323 14.65567 23924 ft 354 kts 229°
2026-05-06 20:04 46.47721 14.62855 23925 ft 354 kts 228°
2026-05-06 20:04 46.46126 14.60158 23927 ft 354 kts 228°
2026-05-06 20:05 46.44518 14.57443 23930 ft 354 kts 228°
2026-05-06 20:05 46.42910 14.54728 23932 ft 354 kts 228°
2026-05-06 20:05 46.41313 14.52036 23935 ft 354 kts 228°
2026-05-06 20:05 46.39704 14.49328 23938 ft 354 kts 228°
2026-05-06 20:06 46.38102 14.46631 23939 ft 354 kts 228°
2026-05-06 20:06 46.36522 14.43976 23939 ft 354 kts 228°
2026-05-06 20:06 46.34896 14.41245 23939 ft 353 kts 228°
2026-05-06 20:06 46.33302 14.38570 23938 ft 353 kts 228°
2026-05-06 20:07 46.31716 14.35914 23936 ft 352 kts 228°
2026-05-06 20:07 46.30130 14.33258 23664 ft 346 kts 227°
2026-05-06 20:07 46.28566 14.30654 22998 ft 346 kts 227°
2026-05-06 20:07 46.27011 14.28063 22480 ft 342 kts 227°
2026-05-06 20:08 46.25478 14.25510 21965 ft 339 kts 227°
2026-05-06 20:08 46.24457 14.23808 21617 ft 336 kts 227°
2026-05-06 20:08 46.22428 14.20430 20926 ft 332 kts 228°
2026-05-06 20:08 46.20929 14.17938 20416 ft 328 kts 228°
2026-05-06 20:09 46.19449 14.15478 19909 ft 325 kts 228°
2026-05-06 20:09 46.17976 14.13031 19411 ft 322 kts 228°
2026-05-06 20:09 46.16521 14.10616 18915 ft 319 kts 229°
2026-05-06 20:09 46.15069 14.08207 18421 ft 315 kts 229°
2026-05-06 20:10 46.13653 14.05861 17934 ft 312 kts 229°
2026-05-06 20:10 46.12234 14.03508 17446 ft 309 kts 229°
2026-05-06 20:10 46.10842 14.01199 16961 ft 307 kts 229°
2026-05-06 20:10 46.09441 13.98880 16479 ft 304 kts 229°
2026-05-06 20:11 46.08069 13.96614 16002 ft 301 kts 229°
2026-05-06 20:11 46.06693 13.94340 15522 ft 299 kts 229°
2026-05-06 20:11 46.05344 13.92116 15051 ft 296 kts 229°
2026-05-06 20:11 46.04007 13.89911 14593 ft 293 kts 229°
2026-05-06 20:12 46.02679 13.87725 14126 ft 291 kts 229°
2026-05-06 20:12 46.01345 13.85532 13664 ft 288 kts 228°
2026-05-06 20:12 46.00044 13.83392 13211 ft 286 kts 228°
2026-05-06 20:12 45.98745 13.81260 12759 ft 283 kts 228°
2026-05-06 20:13 45.97448 13.79129 12304 ft 281 kts 228°
2026-05-06 20:13 45.96176 13.77045 11857 ft 279 kts 228°
2026-05-06 20:13 45.94893 13.74944 11405 ft 277 kts 228°
2026-05-06 20:13 45.93628 13.72877 10960 ft 275 kts 229°
2026-05-06 20:14 45.92370 13.70820 10519 ft 273 kts 229°
2026-05-06 20:14 45.91139 13.68806 10201 ft 267 kts 229°
2026-05-06 20:14 45.89945 13.66857 10013 ft 257 kts 229°
2026-05-06 20:14 45.88805 13.64993 9924 ft 245 kts 229°
2026-05-06 20:15 45.87697 13.63185 9618 ft 243 kts 229°
2026-05-06 20:15 45.86566 13.61341 9220 ft 244 kts 229°
2026-05-06 20:15 45.85450 13.59522 8874 ft 243 kts 230°
2026-05-06 20:15 45.84765 13.58257 8644 ft 242 kts 234°